Theta_e
322 321 321 320 319 321 319 318 318 319 320 319 319 318 320 324 326 327 329 330 330 329 329 329 328 327 328 331 332 331 330 328 325 325 324 322 321 317 316 314 314 314 313 312
321 321 321 320 319 318 318 318 320 319 319 321 318 319 323 324 326 326 327 329 330 330 331 330 330 330 330 332 331 330 330 328 327 326 324 322 319 318 317 315 314 313 312 312
322 323 321 319 318 318 318 319 320 320 320 320 323 322 324 325 327 328 328 328 328 330 331 332 331 331 332 331 330 330 329 328 327 325 322 320 320 318 316 314 313 312 311 310
322 321 320 319 319 319 321 321 321 322 322 321 323 321 323 326 327 328 329 330 329 330 331 332 332 331 331 330 330 330 329 327 325 321 320 319 318 317 317 315 314 312 310 308
322 321 320 320 322 322 324 321 322 322 321 323 323 321 326 327 326 327 328 329 330 331 332 332 331 332 331 330 329 328 326 323 321 320 319 319 318 318 316 314 313 311 310 308
321 322 322 323 322 322 322 322 323 323 322 324 321 323 323 328 326 327 329 330 331 332 332 331 329 327 326 327 327 326 321 320 319 318 318 318 317 315 313 311 309 306 305 304
320 322 322 322 323 323 322 323 325 325 324 324 323 323 321 322 325 326 330 331 332 331 329 326 323 321 321 322 324 323 319 318 318 317 317 315 313 310 307 307 305 305 304 303
322 323 322 322 323 323 323 322 325 323 321 321 324 320 322 324 323 326 329 329 330 328 326 322 320 319 319 319 319 318 318 317 317 315 313 310 307 306 306 306 304 302 301 301
322 322 321 321 322 321 322 322 323 324 328 325 318 320 325 324 324 325 329 328 329 326 323 321 320 319 319 319 319 318 317 316 315 311 308 307 306 305 304 302 301 300 300 299
322 322 321 321 322 322 323 322 322 322 324 322 319 318 323 324 323 325 328 328 327 325 323 322 320 320 319 319 318 318 316 314 310 308 307 306 306 303 301 300 300 299 298 297
321 320 323 321 322 321 324 322 320 322 323 322 318 320 318 320 322 323 326 327 326 325 323 322 321 320 319 318 317 315 312 309 308 307 307 304 303 301 300 300 299 298 297 297
322 322 324 323 322 322 322 323 323 323 321 321 326 319 318 319 320 322 324 325 325 324 323 323 321 320 319 317 315 313 310 307 307 306 303 303 301 300 300 299 298 297 297 296
323 321 323 324 323 321 320 320 321 320 321 320 327 320 319 319 318 320 321 323 324 324 323 323 322 320 318 316 313 311 307 307 306 304 303 301 300 300 300 298 298 297 296 295
317 321 323 325 322 322 323 320 320 320 321 319 319 318 317 318 318 318 319 320 323 324 323 323 322 319 317 314 312 309 307 306 305 302 302 300 300 300 299 298 298 297 296 295
323 323 322 321 321 320 320 319 320 320 319 321 319 316 315 315 316 317 317 319 320 322 322 322 321 319 316 313 311 308 306 306 302 303 300 300 299 298 298 298 297 296 295 295
322 323 323 324 322 320 320 320 318 318 318 317 317 317 317 317 317 317 316 318 319 321 321 320 319 318 315 313 310 307 305 302 303 300 299 299 298 297 297 297 296 295 294 294
324 323 322 319 318 318 323 321 320 318 318 318 320 318 316 317 316 316 316 317 318 319 320 319 318 316 314 311 309 306 303 303 300 299 299 298 296 297 296 295 294 294 294 294
324 323 323 322 318 326 315 315 315 317 317 317 316 316 316 315 317 317 317 317 317 317 317 318 316 315 313 310 306 303 303 300 298 298 298 296 296 296 295 294 294 294 294 294
319 320 322 329 318 316 314 313 314 315 315 315 315 315 315 316 317 317 317 315 315 315 316 316 315 313 311 307 304 302 300 298 299 297 296 295 295 295 294 294 294 294 293 293
316 317 320 319 328 329 319 314 314 315 317 314 314 314 315 316 318 317 316 314 314 315 315 315 314 311 308 304 301 300 299 299 298 296 295 294 294 294 294 293 293 293 293 292
323 324 327 322 327 321 316 314 315 318 319 316 315 315 316 316 317 318 316 315 315 315 314 313 310 307 303 301 299 300 299 297 295 294 294 294 293 293 293 293 293 293 292 292
323 327 325 325 327 326 314 315 317 319 315 315 316 315 317 318 317 317 315 315 315 314 311 307 304 302 299 300 298 298 297 294 294 293 293 293 292 292 292 292 292 292 292 292
322 322 323 321 321 316 315 314 315 315 315 315 315 315 315 316 316 316 315 313 312 310 304 301 300 299 298 297 296 294 293 293 293 292 292 292 292 292 292 292 292 292 291 291
319 317 319 318 315 315 314 314 314 314 315 315 315 315 315 316 316 316 313 309 306 303 300 299 299 297 296 295 293 293 293 292 292 292 292 292 292 292 292 291 291 291 290 290
319 317 317 318 316 316 315 315 315 316 316 316 316 316 315 315 315 314 308 304 301 297 295 295 295 294 294 293 292 293 292 292 292 291 291 291 291 292 291 291 291 291 290 290
316 318 320 320 316 317 317 316 315 315 314 313 313 313 309 310 309 304 301 297 295 294 294 294 294 294 293 292 292 292 292 291 291 291 291 291 291 291 291 290 290 290 289 289
Wind_Speed
11 9 11 13 6 6 8 8 9 13 4 8 10 9 8 11 13 14 14 14 14 14 13 11 12 12 15 18 18 19 20 18 16 9 7 7 7 8 6 6 5 5 5 4
6 10 6 8 9 10 9 11 7 5 8 7 9 8 8 10 13 16 15 15 15 15 12 13 13 15 16 17 18 19 17 16 13 8 10 9 10 9 7 6 7 6 5 3
6 17 6 5 9 10 7 4 7 10 11 13 9 13 13 10 10 10 15 16 15 16 14 12 15 16 16 16 18 19 17 17 13 13 12 11 9 7 7 7 5 5 3 2
5 4 8 6 12 7 8 1 5 5 14 13 17 11 16 15 13 13 13 13 13 12 12 14 16 15 17 17 17 17 19 17 14 14 13 12 11 8 6 4 4 4 3 3
2 12 10 8 2 5 9 4 7 10 14 11 18 9 14 17 15 16 16 15 14 12 14 15 18 21 21 21 20 17 15 16 15 12 10 8 5 2 3 3 3 4 6 7
12 2 4 7 3 2 6 5 7 8 11 8 15 12 6 15 14 15 14 14 14 15 15 16 19 20 18 16 16 17 17 15 13 11 8 6 7 4 4 4 5 6 7 10
10 8 4 4 7 4 7 8 7 6 5 9 3 5 11 1 2 10 15 15 15 15 16 16 17 19 19 17 16 17 16 14 12 11 10 9 8 5 4 4 5 6 9 10
12 8 10 6 6 5 9 11 7 7 7 8 7 7 2 9 3 4 15 15 15 15 15 16 18 18 18 17 17 17 15 14 13 12 10 8 6 4 2 3 5 6 8 10
10 5 6 1 3 6 4 8 5 4 1 5 10 10 9 5 5 8 15 16 16 17 16 17 19 18 17 18 17 17 17 16 14 12 10 8 5 3 4 4 4 6 7 9
2 2 3 5 4 5 8 2 4 5 3 6 3 6 6 5 6 8 14 16 16 17 17 16 18 18 18 17 16 16 16 15 14 13 10 6 4 6 5 5 5 6 7 10
5 7 7 4 10 11 7 9 6 4 3 3 4 3 7 3 5 9 12 15 16 17 17 15 17 19 18 18 18 18 17 17 15 12 8 6 6 7 7 6 5 6 8 12
3 4 5 13 5 5 9 8 9 5 5 3 3 4 5 4 2 8 10 13 15 17 17 16 19 19 19 19 20 20 18 17 14 10 8 7 9 8 8 7 7 8 11 13
6 7 8 7 7 8 8 9 8 4 1 8 3 3 6 6 4 5 9 12 15 17 18 15 17 18 20 20 20 19 18 16 13 9 9 9 10 9 9 9 9 10 13 15
1 11 9 9 6 3 8 11 11 11 6 8 10 12 7 9 7 7 7 10 15 16 16 15 14 18 20 21 21 19 18 15 11 10 8 12 8 9 10 10 10 12 14 15
4 9 13 14 5 6 8 8 11 16 15 13 12 13 10 9 6 7 7 9 12 13 14 15 15 16 21 20 20 19 17 12 11 10 12 10 9 9 10 10 11 13 14 14
5 5 3 6 8 7 10 11 13 14 16 17 17 17 15 10 9 6 9 8 11 13 14 15 16 18 20 20 20 19 14 13 12 12 11 9 9 10 10 11 12 14 14 15
5 4 4 5 3 5 6 15 17 17 17 12 15 15 9 8 6 8 7 6 9 10 12 15 15 18 18 19 19 16 16 13 11 11 9 9 9 9 10 12 14 14 15 15
5 6 1 0 2 1 2 2 4 6 12 14 13 14 12 7 7 6 5 7 7 9 11 12 14 17 17 17 15 16 13 9 11 9 8 8 9 10 11 13 15 15 15 16
4 5 2 2 6 9 11 5 1 2 4 9 8 10 11 6 5 13 8 3 6 7 8 11 15 16 15 14 15 14 12 10 7 8 8 8 10 12 13 15 16 16 16 16
4 1 4 3 3 4 4 4 1 2 5 7 9 10 10 3 5 2 4 2 4 6 8 11 13 12 14 15 14 13 9 6 6 7 9 10 11 12 15 16 17 16 16 17
3 1 5 5 3 6 5 3 2 5 3 8 10 9 8 7 4 7 8 4 7 7 9 9 10 12 14 11 6 2 2 4 6 7 9 11 12 14 15 16 16 15 16 15
6 7 3 3 2 5 6 6 2 5 7 8 9 9 8 10 9 7 8 7 5 4 6 9 10 11 10 7 5 1 6 2 3 7 10 12 14 15 15 15 15 16 17 15
4 4 1 6 1 5 4 4 4 5 7 8 10 10 10 10 12 12 7 6 1 4 8 8 13 10 7 4 1 3 2 3 5 8 11 14 15 14 14 16 17 17 16 14
3 2 2 1 3 1 3 3 3 7 8 11 11 11 11 12 11 10 2 1 3 8 13 12 10 7 3 1 3 5 4 5 8 10 13 13 14 14 15 16 19 14 12 15
3 6 4 5 8 4 1 7 9 10 9 10 11 10 9 11 9 4 5 8 14 15 14 12 8 3 5 5 5 5 6 8 11 12 12 12 13 14 16 18 17 13 13 14
2 1 3 3 5 4 7 11 9 8 10 10 10 10 12 11 11 16 13 18 16 14 10 9 5 3 5 6 7 8 8 9 10 11 11 11 12 15 17 17 17 15 15 17
Wind_Direction
196 230 214 199 190 267 197 228 227 107 143 219 189 176 162 180 192 180 187 179 181 181 161 177 191 180 183 166 177 179 165 170 165 172 168 181 170 172 163 163 156 163 164 161
170 227 156 279 199 231 217 236 139 111 178 258 198 204 174 184 200 189 190 190 190 189 169 181 185 185 188 176 175 181 177 181 184 194 170 163 164 164 165 166 170 170 162 161
149 279 125 215 209 233 251 267 156 203 187 230 203 195 186 187 192 202 199 198 197 195 191 178 189 182 178 181 181 177 179 183 188 161 156 153 154 151 171 176 175 165 172 198
3 174 163 232 238 236 225 289 203 208 193 211 209 231 191 177 182 196 202 215 200 195 191 182 181 173 176 166 172 176 182 177 167 167 169 177 187 191 166 172 186 197 211 273
26 187 196 212 353 280 119 180 213 209 234 186 199 250 188 220 192 193 193 200 199 184 183 175 169 174 173 166 173 176 167 165 165 174 180 183 214 148 126 155 177 245 259 269
241 331 304 67 113 284 137 184 215 243 259 264 266 248 182 188 209 176 180 182 179 171 164 158 155 153 149 161 168 161 169 164 170 169 164 171 157 165 181 220 266 277 293 294
229 186 129 199 138 153 221 232 245 213 235 247 38 288 260 144 105 186 176 178 171 167 163 157 156 159 154 156 161 166 171 167 167 158 150 149 151 167 181 224 273 298 297 304
203 189 186 164 270 303 213 273 251 289 296 272 133 249 167 71 107 178 167 178 174 178 167 167 166 164 165 167 170 174 172 170 166 160 157 155 154 183 227 240 283 299 303 306
219 166 115 247 245 282 173 245 334 309 65 274 264 245 157 134 166 194 172 179 182 183 178 177 176 176 176 179 179 183 178 178 174 167 163 157 168 156 234 243 270 289 299 301
266 150 186 136 219 212 269 39 215 225 255 253 231 250 83 159 174 190 185 187 186 189 185 186 183 184 183 186 180 183 186 174 171 171 167 170 183 210 220 246 267 291 297 300
250 251 153 166 211 229 182 232 239 307 286 288 302 80 70 70 175 195 206 189 194 195 192 190 192 188 191 186 181 185 182 176 178 177 176 184 201 214 235 256 275 288 293 301
165 262 211 227 85 299 297 269 214 231 216 225 323 305 147 133 185 191 203 200 198 202 202 194 196 190 195 188 189 189 183 183 181 180 178 205 216 231 249 268 275 284 295 301
187 230 230 226 205 214 236 225 238 229 327 245 227 282 164 156 222 204 217 207 204 208 208 201 195 198 200 196 196 188 189 186 176 196 197 218 230 247 267 272 273 283 296 301
6 246 238 244 323 342 206 236 222 214 223 251 244 277 219 204 232 224 220 233 210 211 215 207 202 203 203 202 200 195 193 183 199 193 215 236 248 266 272 268 271 285 296 299
242 240 240 261 307 298 291 270 233 235 239 255 266 272 290 315 293 263 242 229 232 215 217 213 212 206 206 202 202 202 192 193 179 217 225 244 257 266 266 265 273 287 291 291
194 244 267 259 240 267 273 263 258 245 250 257 263 271 297 348 310 257 268 249 239 219 212 215 216 213 208 204 207 200 182 191 204 214 230 251 264 267 267 272 283 287 290 292
193 208 194 246 340 306 288 244 246 248 250 256 269 281 316 321 282 275 264 238 250 243 225 220 220 218 210 208 206 181 192 202 199 222 242 260 266 264 270 278 283 287 292 293
184 204 124 193 242 309 291 37 323 286 277 268 273 283 283 293 327 303 273 283 240 249 243 228 220 216 209 211 184 194 195 189 211 236 261 266 262 268 275 282 284 283 288 293
234 157 149 173 222 291 281 163 273 228 297 31 349 348 336 33 300 263 218 231 288 279 250 230 216 211 201 186 192 186 186 200 237 249 271 272 270 271 276 281 284 286 288 291
119 218 218 164 210 232 83 95 138 225 249 35 0 344 331 270 271 50 127 224 224 237 229 214 205 187 188 189 182 186 178 208 268 292 282 274 277 281 282 286 287 285 283 283
139 215 209 202 249 284 62 126 204 244 38 359 351 335 315 268 355 5 351 304 257 224 200 182 170 170 178 162 131 165 105 253 256 273 275 277 282 286 287 290 288 279 280 286
174 167 187 177 205 269 131 139 306 14 323 343 328 327 313 294 301 322 317 295 258 200 130 151 163 136 112 118 106 317 255 8 325 293 283 287 291 289 289 289 281 276 279 280
211 221 239 207 199 97 188 350 339 328 316 323 319 311 308 292 289 294 316 307 357 124 132 136 108 109 103 90 141 265 312 331 284 283 290 294 293 291 286 283 285 287 289 283
209 143 225 307 114 261 305 321 3 352 337 327 324 320 323 313 315 308 38 69 126 119 91 85 98 95 130 196 339 334 319 303 297 292 292 295 295 293 290 287 279 279 279 278
10 161 231 242 290 341 104 48 2 335 328 335 341 337 348 324 316 29 100 96 75 84 77 75 76 53 357 332 314 297 296 291 290 295 296 295 293 291 291 287 288 291 281 272
209 38 213 229 46 348 331 23 359 12 17 16 16 32 26 23 60 75 71 79 80 78 75 67 35 332 295 292 286 283 283 288 289 289 292 292 293 289 286 291 292 287 287 277